Погода в Каилуа-Коне

США     19°38′24″N   155°59′44″W
темп.,
°C
ветер,
м/с
пор.,
м/с
влажн.,
%
обл.,
%
осадки,
мм/ч
давл.,
гПа
погр.,
м
30 июля, пт
пт3023:00+23ю2389100 0.6 1017276
02:00+23юз128888 1.4 1016261
05:00+23ю238771 0.4 1016241
08:00+24ююз3382100 0.5 1017445
11:00+25юз337144 0.1 1017786
14:00+26зюз437142 0.1 1016720
17:00+24юз337884 0.1 1015528
20:00+23зюз228251 0.1 1017426
31 июля, сб
сб3123:00+23зюз118345 0.0 1017375
02:00+23вюв11805 0.1 1016266
05:00+23юв11796 0.0 1016154
08:00+24юз11745 0.0 1017433
11:00+26з326920 0.0 1017782
14:00+25зюз327443 0.1 1016662
17:00+25юз337024 0.0 1016676
20:00+24ююз327828 0.1 1017503
1 августа, вс
вс123:00+23ююз228037 0.1 1018494
02:00+23ссв117911 0.1 1017372
05:00+23вюв01774 0.0 1017189
08:00+24ссв21648 0.0 1019468
11:00+26зсз22544 0.0 1018777
14:00+26зсз33572 0.1 1017876
17:00+26з22639 0.1 1017786
20:00+24зюз116937 0.2 1019580
2 августа, пн
пн223:00+24св12649 0.1 1019387
02:00+23ююв02691 0.1 1018287
05:00+23зсз01747 0.1 1018243
08:00+24ссв22620 0.1 1019536
11:00+26сз32530 0.0 1019807
14:00+25зюз326222 0.0 1018786
17:00+25зюз326964 0.2 1017778
20:00+24сз226725 0.3 1018688
3 августа, вт
вт323:00+24ссв11667 0.0 1019435
02:00+23юв117033 0.0 1017375
05:00+23зюз117516 0.0 1017297
08:00+24ююз11701 0.1 1018563
11:00+25зюз436421 0.0 1018922
14:00+25зюз437362 0.4 1016772
17:00+24юз327638 0.6 1016626
20:00+23юз117723 1.0 1017264